GFRAN CYQB-CYES

Flight info

Callsign GFRAN
Flight time 1h 13m
Altitude 2000
Route DCT
Aircraft B412/L-S/C

Departure

Time 2026-05-04 17:46
Airport Quebec Jean Lesage International Airport (CYQB)

Arrival

Time 2026-05-04 19:00
Airport Edmundston Airport (CYES)
Time Latitude Longitude Altitude Speed Heading
2026-05-04 17:43 46.79562 -71.37962 220 ft 0 kts 45°
2026-05-04 17:45 46.79565 -71.37960 229 ft 3 kts 58°
2026-05-04 17:45 46.79599 -71.37955 234 ft 8 kts 332°
2026-05-04 17:45 46.79667 -71.38044 286 ft 19 kts 265°
2026-05-04 17:45 46.79589 -71.38383 474 ft 62 kts 229°
2026-05-04 17:46 46.79202 -71.38969 724 ft 93 kts 223°
2026-05-04 17:46 46.78687 -71.39540 1099 ft 92 kts 210°
2026-05-04 17:46 46.78071 -71.39547 1400 ft 102 kts 147°
2026-05-04 17:46 46.77572 -71.38715 1507 ft 115 kts 124°
2026-05-04 17:47 46.77182 -71.37794 1718 ft 100 kts 119°
2026-05-04 17:47 46.76885 -71.36872 1810 ft 111 kts 118°
2026-05-04 17:47 46.76542 -71.35829 1933 ft 119 kts 124°
2026-05-04 17:47 46.76105 -71.34752 2044 ft 128 kts 134°
2026-05-04 17:48 46.75541 -71.33712 2170 ft 131 kts 141°
2026-05-04 17:48 46.74936 -71.32760 2302 ft 127 kts 142°
2026-05-04 17:48 46.74303 -71.31858 2430 ft 126 kts 145°
2026-05-04 17:48 46.73651 -71.31006 2558 ft 125 kts 146°
2026-05-04 17:49 46.72989 -71.30192 2686 ft 125 kts 148°
2026-05-04 17:49 46.72542 -71.29179 2801 ft 123 kts 91°
2026-05-04 17:49 46.72726 -71.27969 2867 ft 124 kts 71°
2026-05-04 17:49 46.73034 -71.26793 2927 ft 125 kts 68°
2026-05-04 17:50 46.73362 -71.25620 2979 ft 124 kts 68°
2026-05-04 17:50 46.73690 -71.24464 3003 ft 123 kts 68°
2026-05-04 17:50 46.74024 -71.23294 3004 ft 124 kts 68°
2026-05-04 17:50 46.74353 -71.22134 3006 ft 124 kts 68°
2026-05-04 17:51 46.74683 -71.20971 3008 ft 124 kts 68°
2026-05-04 17:51 46.75012 -71.19809 3010 ft 124 kts 68°
2026-05-04 17:51 46.75342 -71.18648 3005 ft 124 kts 68°
2026-05-04 17:51 46.75671 -71.17487 3001 ft 124 kts 68°
2026-05-04 17:52 46.75999 -71.16328 2998 ft 124 kts 68°
2026-05-04 17:52 46.76327 -71.15170 2995 ft 124 kts 68°
2026-05-04 17:52 46.76659 -71.13995 2992 ft 124 kts 68°
2026-05-04 17:52 46.76986 -71.12839 2992 ft 124 kts 68°
2026-05-04 17:53 46.77313 -71.11681 2997 ft 124 kts 68°
2026-05-04 17:53 46.77640 -71.10524 3001 ft 123 kts 68°
2026-05-04 17:53 46.77966 -71.09367 3006 ft 123 kts 68°
2026-05-04 17:53 46.78292 -71.08212 3010 ft 123 kts 68°
2026-05-04 17:54 46.78619 -71.07051 2998 ft 125 kts 68°
2026-05-04 17:54 46.78950 -71.05877 2995 ft 125 kts 68°
2026-05-04 17:54 46.79282 -71.04696 3000 ft 124 kts 68°
2026-05-04 17:54 46.79608 -71.03539 2999 ft 124 kts 68°
2026-05-04 17:55 46.79943 -71.02372 2994 ft 126 kts 67°
2026-05-04 17:55 46.80285 -71.01209 2999 ft 124 kts 67°
2026-05-04 17:55 46.80625 -71.00061 3001 ft 123 kts 67°
2026-05-04 17:55 46.80967 -70.98903 2996 ft 125 kts 66°
2026-05-04 17:56 46.81311 -70.97737 2998 ft 124 kts 67°
2026-05-04 17:56 46.81657 -70.96590 3003 ft 123 kts 66°
2026-05-04 17:56 46.82015 -70.95429 2998 ft 125 kts 65°
2026-05-04 17:56 46.82373 -70.94271 2997 ft 125 kts 65°
2026-05-04 17:57 46.82727 -70.93124 3001 ft 123 kts 65°
2026-05-04 17:57 46.83082 -70.91980 2998 ft 124 kts 65°
2026-05-04 17:57 46.83439 -70.90824 2994 ft 126 kts 65°
2026-05-04 17:57 46.83795 -70.89672 2999 ft 124 kts 65°
2026-05-04 17:58 46.84148 -70.88532 2998 ft 124 kts 65°
2026-05-04 17:58 46.84504 -70.87381 2993 ft 125 kts 65°
2026-05-04 17:58 46.84861 -70.86223 2994 ft 124 kts 65°
2026-05-04 17:58 46.85220 -70.85066 2996 ft 123 kts 66°
2026-05-04 17:59 46.85574 -70.83920 2992 ft 125 kts 65°
2026-05-04 17:59 46.85930 -70.82765 2993 ft 125 kts 65°
2026-05-04 17:59 46.86640 -70.80463 3006 ft 123 kts 65°
2026-05-04 18:00 46.86994 -70.79318 3001 ft 125 kts 65°
2026-05-04 18:00 46.87351 -70.78160 2997 ft 125 kts 65°
2026-05-04 18:00 46.87721 -70.77020 3002 ft 123 kts 64°
2026-05-04 18:00 46.88124 -70.75896 2999 ft 124 kts 59°
2026-05-04 18:01 46.88577 -70.74822 2997 ft 125 kts 57°
2026-05-04 18:01 46.89041 -70.73753 2994 ft 125 kts 57°
2026-05-04 18:01 46.89507 -70.72682 2990 ft 125 kts 57°
2026-05-04 18:02 46.90458 -70.70555 3000 ft 125 kts 56°
2026-05-04 18:02 46.90950 -70.69506 3004 ft 125 kts 55°
2026-05-04 18:02 46.91465 -70.68482 3009 ft 125 kts 52°
2026-05-04 18:02 46.92000 -70.67460 3006 ft 125 kts 52°
2026-05-04 18:03 46.92529 -70.66456 3003 ft 125 kts 52°
2026-05-04 18:03 46.93070 -70.65470 3000 ft 124 kts 50°
2026-05-04 18:03 46.93629 -70.64509 2997 ft 124 kts 49°
2026-05-04 18:03 46.94191 -70.63551 2995 ft 124 kts 49°
2026-05-04 18:04 46.94752 -70.62595 2994 ft 124 kts 49°
2026-05-04 18:04 46.95313 -70.61640 2992 ft 124 kts 49°
2026-05-04 18:04 46.96442 -70.59718 2991 ft 124 kts 49°
2026-05-04 18:05 46.97002 -70.58764 2991 ft 124 kts 49°
2026-05-04 18:05 46.97442 -70.57687 2998 ft 124 kts 64°
2026-05-04 18:05 46.97792 -70.56535 3003 ft 124 kts 66°
2026-05-04 18:05 46.98125 -70.55372 3007 ft 124 kts 67°
2026-05-04 18:06 46.98792 -70.53048 3004 ft 124 kts 67°
2026-05-04 18:06 46.99126 -70.51890 3000 ft 124 kts 66°
2026-05-04 18:06 46.99467 -70.50718 2997 ft 123 kts 66°
2026-05-04 18:07 46.99804 -70.49564 2994 ft 123 kts 66°
2026-05-04 18:07 47.00143 -70.48412 2991 ft 123 kts 66°
2026-05-04 18:07 47.00484 -70.47251 2995 ft 125 kts 66°
2026-05-04 18:07 47.00854 -70.46099 2997 ft 126 kts 54°
2026-05-04 18:08 47.01463 -70.45214 3003 ft 123 kts 40°
2026-05-04 18:08 47.02139 -70.44441 3000 ft 123 kts 37°
2026-05-04 18:08 47.02827 -70.43686 2998 ft 124 kts 36°
2026-05-04 18:08 47.03526 -70.42921 2997 ft 124 kts 36°
2026-05-04 18:09 47.04902 -70.41412 2995 ft 123 kts 36°
2026-05-04 18:09 47.06260 -70.39871 2995 ft 123 kts 38°
2026-05-04 18:10 47.06934 -70.39083 2990 ft 124 kts 38°
2026-05-04 18:10 47.07607 -70.38277 2995 ft 125 kts 39°
2026-05-04 18:10 47.08280 -70.37470 3004 ft 124 kts 39°
2026-05-04 18:10 47.08953 -70.36663 3004 ft 124 kts 39°
2026-05-04 18:11 47.09622 -70.35863 3001 ft 125 kts 39°
2026-05-04 18:11 47.10296 -70.35055 2994 ft 127 kts 38°
2026-05-04 18:11 47.10981 -70.34238 2995 ft 127 kts 40°
2026-05-04 18:11 47.11659 -70.33424 3001 ft 125 kts 39°
2026-05-04 18:12 47.12330 -70.32619 3003 ft 124 kts 39°
2026-05-04 18:12 47.12999 -70.31818 3006 ft 124 kts 39°
2026-05-04 18:12 47.13665 -70.31020 3010 ft 124 kts 39°
2026-05-04 18:12 47.14339 -70.30213 3005 ft 123 kts 39°
2026-05-04 18:13 47.15008 -70.29411 2997 ft 125 kts 39°
2026-05-04 18:13 47.15682 -70.28600 2998 ft 125 kts 39°
2026-05-04 18:13 47.17015 -70.27000 2999 ft 125 kts 39°
2026-05-04 18:14 47.17689 -70.26189 2999 ft 125 kts 39°
2026-05-04 18:14 47.18356 -70.25388 3003 ft 123 kts 39°
2026-05-04 18:14 47.19022 -70.24589 3000 ft 125 kts 39°
2026-05-04 18:15 47.20373 -70.22963 3003 ft 123 kts 39°
2026-05-04 18:15 47.21714 -70.21365 2996 ft 125 kts 37°
2026-05-04 18:15 47.22430 -70.20644 3000 ft 124 kts 34°
2026-05-04 18:16 47.23146 -70.19952 2999 ft 124 kts 33°
2026-05-04 18:16 47.23870 -70.19256 2996 ft 125 kts 33°
2026-05-04 18:16 47.24598 -70.18555 2991 ft 125 kts 33°
2026-05-04 18:17 47.26053 -70.17155 3006 ft 123 kts 33°
2026-05-04 18:17 47.26776 -70.16458 3003 ft 125 kts 33°
2026-05-04 18:17 47.28231 -70.15055 2998 ft 125 kts 33°
2026-05-04 18:18 47.28952 -70.14362 3002 ft 123 kts 33°
2026-05-04 18:18 47.29672 -70.13668 2999 ft 125 kts 33°
2026-05-04 18:18 47.30401 -70.12965 2999 ft 125 kts 33°
2026-05-04 18:18 47.31123 -70.12268 3003 ft 123 kts 33°
2026-05-04 18:19 47.32553 -70.10804 3000 ft 125 kts 35°
2026-05-04 18:19 47.33259 -70.10067 3005 ft 124 kts 35°
2026-05-04 18:19 47.33960 -70.09338 3008 ft 123 kts 36°
2026-05-04 18:20 47.34615 -70.08506 3003 ft 126 kts 45°
2026-05-04 18:20 47.35212 -70.07574 3008 ft 124 kts 48°
2026-05-04 18:20 47.35788 -70.06632 3008 ft 123 kts 48°
2026-05-04 18:20 47.36370 -70.05699 2997 ft 125 kts 47°
2026-05-04 18:21 47.36969 -70.04744 2994 ft 125 kts 47°
2026-05-04 18:21 47.37558 -70.03811 2999 ft 124 kts 47°
2026-05-04 18:21 47.38144 -70.02887 2999 ft 124 kts 47°
2026-05-04 18:21 47.38739 -70.01952 2995 ft 126 kts 47°
2026-05-04 18:22 47.39333 -70.01018 3000 ft 124 kts 47°
2026-05-04 18:22 47.39923 -70.00096 3005 ft 123 kts 46°
2026-05-04 18:22 47.40517 -69.99168 3000 ft 125 kts 46°
2026-05-04 18:22 47.41115 -69.98233 3002 ft 125 kts 47°
2026-05-04 18:23 47.41708 -69.97308 3006 ft 124 kts 46°
2026-05-04 18:23 47.42307 -69.96375 3009 ft 123 kts 46°
2026-05-04 18:23 47.42902 -69.95449 2997 ft 125 kts 46°
2026-05-04 18:23 47.43501 -69.94516 2999 ft 125 kts 46°
2026-05-04 18:24 47.44086 -69.93581 3002 ft 124 kts 50°
2026-05-04 18:24 47.44627 -69.92600 3005 ft 124 kts 51°
2026-05-04 18:24 47.45167 -69.91599 3000 ft 126 kts 51°
2026-05-04 18:24 47.45707 -69.90593 3004 ft 124 kts 51°
2026-05-04 18:25 47.46243 -69.89598 3009 ft 123 kts 51°
2026-05-04 18:25 47.46851 -69.88704 3004 ft 125 kts 37°
2026-05-04 18:25 47.47565 -69.87935 3005 ft 125 kts 35°
2026-05-04 18:25 47.48273 -69.87206 3010 ft 124 kts 34°
2026-05-04 18:26 47.48980 -69.86486 3003 ft 124 kts 35°
2026-05-04 18:26 47.49693 -69.85757 2993 ft 126 kts 34°
2026-05-04 18:26 47.50407 -69.85023 2998 ft 124 kts 34°
2026-05-04 18:26 47.51116 -69.84296 3002 ft 124 kts 34°
2026-05-04 18:27 47.51822 -69.83575 3006 ft 123 kts 34°
2026-05-04 18:27 47.52536 -69.82863 3004 ft 125 kts 33°
2026-05-04 18:27 47.53270 -69.82136 3003 ft 125 kts 33°
2026-05-04 18:27 47.53987 -69.81426 3007 ft 123 kts 33°
2026-05-04 18:28 47.54701 -69.80720 3004 ft 124 kts 33°
2026-05-04 18:28 47.55423 -69.80004 2999 ft 125 kts 33°
2026-05-04 18:28 47.56143 -69.79290 3003 ft 124 kts 34°
2026-05-04 18:28 47.56857 -69.78583 3002 ft 124 kts 33°
2026-05-04 18:29 47.57576 -69.77870 2999 ft 125 kts 33°
2026-05-04 18:29 47.58298 -69.77154 2996 ft 125 kts 33°
2026-05-04 18:29 47.59021 -69.76435 2992 ft 125 kts 33°
2026-05-04 18:29 47.59744 -69.75716 2993 ft 125 kts 33°
2026-05-04 18:30 47.61190 -69.74276 3001 ft 125 kts 34°
2026-05-04 18:30 47.61915 -69.73553 3005 ft 125 kts 34°
2026-05-04 18:30 47.62638 -69.72832 3010 ft 125 kts 34°
2026-05-04 18:31 47.63361 -69.72111 3005 ft 125 kts 34°
2026-05-04 18:31 47.64082 -69.71392 3002 ft 125 kts 33°
2026-05-04 18:31 47.64805 -69.70673 2999 ft 125 kts 33°
2026-05-04 18:31 47.65523 -69.69958 2996 ft 125 kts 33°
2026-05-04 18:32 47.66243 -69.69241 2994 ft 124 kts 34°
2026-05-04 18:32 47.66961 -69.68524 2992 ft 124 kts 33°
2026-05-04 18:32 47.67680 -69.67807 2990 ft 124 kts 33°
2026-05-04 18:32 47.68397 -69.67092 2996 ft 124 kts 33°
2026-05-04 18:33 47.69112 -69.66371 3000 ft 124 kts 34°
2026-05-04 18:33 47.69821 -69.65638 3004 ft 124 kts 34°
2026-05-04 18:33 47.70529 -69.64904 3008 ft 124 kts 34°
2026-05-04 18:33 47.71245 -69.64160 3007 ft 124 kts 35°
2026-05-04 18:34 47.71949 -69.63429 3003 ft 123 kts 34°
2026-05-04 18:34 47.72652 -69.62700 3000 ft 123 kts 34°
2026-05-04 18:34 47.73358 -69.61967 2994 ft 125 kts 34°
2026-05-04 18:34 47.73843 -69.60925 2997 ft 126 kts 70°
2026-05-04 18:35 47.74083 -69.59688 3007 ft 124 kts 76°
2026-05-04 18:35 47.74277 -69.58448 3006 ft 123 kts 77°
2026-05-04 18:35 47.74468 -69.57201 2996 ft 125 kts 77°
2026-05-04 18:35 47.74663 -69.55925 2991 ft 125 kts 77°
2026-05-04 18:36 47.74858 -69.54672 2995 ft 124 kts 76°
2026-05-04 18:36 47.75052 -69.53433 2995 ft 124 kts 78°
2026-05-04 18:36 47.75025 -69.52158 2993 ft 126 kts 103°
2026-05-04 18:36 47.74747 -69.50932 3010 ft 124 kts 110°
2026-05-04 18:37 47.74426 -69.49754 3006 ft 123 kts 112°
2026-05-04 18:37 47.74091 -69.48563 2997 ft 125 kts 112°
2026-05-04 18:37 47.73753 -69.47364 2998 ft 125 kts 111°
2026-05-04 18:37 47.73437 -69.46186 3002 ft 124 kts 111°
2026-05-04 18:38 47.73122 -69.44997 3002 ft 124 kts 111°
2026-05-04 18:38 47.72804 -69.43791 2999 ft 126 kts 111°
2026-05-04 18:38 47.72493 -69.42584 3004 ft 124 kts 110°
2026-05-04 18:38 47.72194 -69.41376 3008 ft 123 kts 109°
2026-05-04 18:39 47.71903 -69.40184 3002 ft 124 kts 109°
2026-05-04 18:39 47.71606 -69.38971 2992 ft 126 kts 109°
2026-05-04 18:39 47.71310 -69.37761 2995 ft 124 kts 109°
2026-05-04 18:39 47.71019 -69.36562 2999 ft 123 kts 109°
2026-05-04 18:40 47.70726 -69.35359 2998 ft 124 kts 109°
2026-05-04 18:40 47.70430 -69.34137 2993 ft 127 kts 109°
2026-05-04 18:40 47.70132 -69.32902 3009 ft 125 kts 110°
2026-05-04 18:40 47.69841 -69.31690 3006 ft 125 kts 110°
2026-05-04 18:41 47.69558 -69.30472 3002 ft 125 kts 108°
2026-05-04 18:41 47.69293 -69.29242 2999 ft 125 kts 108°
2026-05-04 18:41 47.69032 -69.28010 2995 ft 125 kts 107°
2026-05-04 18:41 47.68795 -69.26779 2993 ft 125 kts 104°
2026-05-04 18:42 47.68600 -69.25511 2991 ft 125 kts 102°
2026-05-04 18:42 47.68402 -69.24262 2993 ft 125 kts 104°
2026-05-04 18:42 47.68200 -69.23020 2998 ft 125 kts 102°
2026-05-04 18:42 47.68024 -69.21759 3002 ft 125 kts 101°
2026-05-04 18:43 47.67855 -69.20486 3007 ft 125 kts 101°
2026-05-04 18:43 47.67688 -69.19222 3008 ft 124 kts 101°
2026-05-04 18:43 47.67527 -69.17969 3003 ft 124 kts 100°
2026-05-04 18:43 47.67377 -69.16724 3000 ft 124 kts 100°
2026-05-04 18:44 47.67225 -69.15455 2997 ft 124 kts 100°
2026-05-04 18:44 47.67176 -69.15039 2996 ft 124 kts 100°
2026-05-04 18:44 47.66927 -69.12950 2992 ft 123 kts 100°
2026-05-04 18:44 47.66777 -69.11697 2990 ft 123 kts 100°
2026-05-04 18:45 47.66626 -69.10440 2993 ft 124 kts 101°
2026-05-04 18:45 47.66451 -69.09179 2996 ft 125 kts 102°
2026-05-04 18:45 47.66269 -69.07917 2998 ft 125 kts 102°
2026-05-04 18:45 47.66086 -69.06657 3000 ft 125 kts 102°
2026-05-04 18:46 47.65886 -69.05401 2991 ft 125 kts 103°
2026-05-04 18:46 47.65679 -69.04157 2933 ft 124 kts 104°
2026-05-04 18:46 47.65474 -69.02917 2863 ft 124 kts 104°
2026-05-04 18:46 47.65269 -69.01683 2793 ft 123 kts 104°
2026-05-04 18:47 47.65065 -69.00452 2723 ft 123 kts 104°
2026-05-04 18:47 47.64859 -68.99206 2656 ft 123 kts 104°
2026-05-04 18:47 47.64656 -68.97980 2589 ft 123 kts 104°
2026-05-04 18:47 47.64451 -68.96743 2530 ft 124 kts 104°
2026-05-04 18:48 47.64246 -68.95514 2501 ft 124 kts 103°
2026-05-04 18:48 47.64061 -68.94263 2501 ft 123 kts 102°
2026-05-04 18:48 47.63891 -68.93026 2501 ft 123 kts 101°
2026-05-04 18:48 47.63723 -68.91761 2494 ft 124 kts 101°
2026-05-04 18:49 47.63562 -68.90508 2416 ft 124 kts 101°
2026-05-04 18:49 47.63402 -68.89256 2321 ft 124 kts 100°
2026-05-04 18:49 47.63244 -68.88005 2230 ft 123 kts 101°
2026-05-04 18:49 47.63085 -68.86757 2159 ft 123 kts 101°
2026-05-04 18:50 47.62926 -68.85512 2094 ft 123 kts 101°
2026-05-04 18:50 47.62768 -68.84270 2035 ft 123 kts 101°
2026-05-04 18:50 47.62607 -68.83030 2006 ft 123 kts 102°
2026-05-04 18:50 47.62207 -68.81898 2003 ft 123 kts 124°
2026-05-04 18:51 47.61718 -68.80859 2005 ft 123 kts 124°
2026-05-04 18:51 47.61243 -68.79810 2008 ft 123 kts 123°
2026-05-04 18:51 47.60772 -68.78760 2012 ft 122 kts 123°
2026-05-04 18:51 47.60290 -68.77724 2011 ft 122 kts 126°
2026-05-04 18:52 47.59786 -68.76715 2007 ft 122 kts 127°
2026-05-04 18:52 47.59263 -68.75729 2003 ft 122 kts 128°
2026-05-04 18:52 47.58738 -68.74745 2000 ft 122 kts 128°
2026-05-04 18:52 47.58209 -68.73752 1997 ft 122 kts 128°
2026-05-04 18:53 47.57693 -68.72781 1994 ft 122 kts 128°
2026-05-04 18:53 47.57167 -68.71788 2000 ft 122 kts 127°
2026-05-04 18:53 47.56664 -68.70777 2004 ft 122 kts 125°
2026-05-04 18:53 47.56183 -68.69745 2003 ft 122 kts 124°
2026-05-04 18:54 47.55705 -68.68698 2000 ft 123 kts 123°
2026-05-04 18:54 47.55230 -68.67628 2000 ft 123 kts 120°
2026-05-04 18:54 47.54865 -68.66505 2004 ft 121 kts 113°
2026-05-04 18:54 47.54540 -68.65348 1999 ft 123 kts 112°
2026-05-04 18:55 47.54212 -68.64163 1985 ft 123 kts 111°
2026-05-04 18:55 47.53599 -68.61898 1867 ft 106 kts 113°
2026-05-04 18:55 47.53321 -68.60914 1804 ft 99 kts 114°
2026-05-04 18:56 47.53064 -68.60007 1743 ft 94 kts 111°
2026-05-04 18:56 47.52826 -68.59112 1706 ft 94 kts 111°
2026-05-04 18:56 47.52584 -68.58209 1697 ft 93 kts 111°
2026-05-04 18:56 47.52343 -68.57320 1693 ft 93 kts 111°
2026-05-04 18:57 47.52103 -68.56438 1695 ft 93 kts 111°
2026-05-04 18:57 47.51858 -68.55542 1700 ft 93 kts 111°
2026-05-04 18:57 47.51613 -68.54648 1688 ft 98 kts 114°
2026-05-04 18:57 47.51336 -68.53642 1700 ft 108 kts 113°
2026-05-04 18:58 47.51094 -68.52575 1709 ft 110 kts 106°
2026-05-04 18:58 47.50936 -68.51472 1686 ft 114 kts 100°
2026-05-04 18:58 47.50571 -68.50415 1696 ft 98 kts 129°
2026-05-04 18:58 47.50172 -68.49881 2039 ft 75 kts 146°
2026-05-04 18:59 47.49719 -68.49352 2089 ft 94 kts 142°
2026-05-04 18:59 47.49222 -68.48550 1421 ft 107 kts 118°
2026-05-04 18:59 47.48844 -68.47722 1038 ft 93 kts 114°
2026-05-04 18:59 47.48535 -68.47134 835 ft 55 kts 116°
2026-05-04 19:00 47.48297 -68.46727 753 ft 47 kts 155°
2026-05-04 19:00 47.48263 -68.47007 638 ft 49 kts 287°
2026-05-04 19:00 47.48361 -68.47292 554 ft 18 kts 328°
2026-05-04 19:00 47.48517 -68.47424 521 ft 27 kts 299°
2026-05-04 19:01 47.48608 -68.47583 502 ft 20 kts 295°
2026-05-04 19:01 47.48584 -68.47676 501 ft 5 kts 227°
2026-05-04 19:01 47.48558 -68.47704 503 ft 5 kts 278°
2026-05-04 19:01 47.48584 -68.47739 504 ft 7 kts 310°
2026-05-04 19:02 47.48590 -68.47759 495 ft 0 kts 317°